Location: Asheville, NC
(35.6000°N, 82.5500°W)
Time: 23:05:32
(UTC-04:00)

VELOX 1 - Visible Passes

Search period start: 23 April 2018 00:00
Search period end: 03 May 2018 00:00
Orbit: 629 x 646 km, 98.2° (Epoch: 23 April)

Date Brightness Start Highest point End Pass type
(mag) Time Alt. Az. Time Alt. Az. Time Alt. Az.
29 Apr ? 01:12:23 10° NNE 01:12:23 10° NNE 01:12:27 10° NNE visible
30 Apr ? 01:35:12 12° N 01:35:12 12° N 01:35:33 10° N visible
01 May ? 01:58:01 12° N 01:58:01 12° N 01:58:20 10° NNW visible
02 May ? 02:20:50 10° NNW 02:20:50 10° NNW 02:20:52 10° NNW visible
